When you browse on this site, cookies collect data to enhance your experience and personalize the content and advertising you see.
Visit our Privacy Policy to learn more. By continuing to use the site, you agree to this use of cookies and data.
  • In Deutschland
  • Länderverzeichnis
  • Für 7 Tage
  • Wassertemperatur
  • Wetterkarte
  • Widgets
  • user-avatar
    Anmelden

    Stündliche Wetter Byzovo

    Heute, 24 Februar, Montag

    Zeit Temperatur Niederschläge Wind Luftdruck Luftfeuchtigkeit
    00:00 -8°C° 0 mm 3 m/S 743 mmHg 91%
    01:00 -8°C° 0 mm 3 m/S 743 mmHg 92%
    02:00 -8°C° 0 mm 3 m/S 742 mmHg 92%
    03:00 -10°C° 0 mm 4 m/S 741 mmHg 91%
    04:00 -10°C° 0 mm 4 m/S 741 mmHg 94%
    05:00 -10°C° 0 mm 4 m/S 740 mmHg 89%
    06:00 -11°C° 0 mm 5 m/S 740 mmHg 85%
    07:00 -10°C° 0 mm 5 m/S 739 mmHg 80%
    08:00 -10°C° 0 mm 5 m/S 738 mmHg 82%
    09:00 -10°C° 0 mm 6 m/S 738 mmHg 84%
    10:00 -10°C° 0 mm 6 m/S 738 mmHg 84%
    11:00 -9°C° 0 mm 6 m/S 737 mmHg 85%
    12:00 -8°C° 0 mm 6 m/S 737 mmHg 86%
    13:00 -7°C° 0 mm 7 m/S 736 mmHg 86%
    14:00 -7°C° 0 mm 7 m/S 736 mmHg 88%
    15:00 -8°C° 0 mm 7 m/S 735 mmHg 89%
    16:00 -8°C° 0 mm 7 m/S 735 mmHg 91%
    17:00 -8°C° 0.2 mm 6 m/S 735 mmHg 91%
    18:00 -8°C° 0.2 mm 6 m/S 734 mmHg 91%
    19:00 -9°C° 0.2 mm 6 m/S 734 mmHg 92%
    20:00 -8°C° 0 mm 5 m/S 734 mmHg 91%
    21:00 -8°C° 0 mm 5 m/S 734 mmHg 91%
    22:00 -8°C° 0 mm 4 m/S 734 mmHg 90%
    23:00 -8°C° 0 mm 4 m/S 734 mmHg 90%

    Morgen, 25 Februar, Dienstag

    Zeit Temperatur Niederschläge Wind Luftdruck Luftfeuchtigkeit
    00:00 -7°C° 0 mm 4 m/S 734 mmHg 90%
    01:00 -7°C° 0 mm 4 m/S 734 mmHg 90%
    02:00 -7°C° 0 mm 4 m/S 735 mmHg 91%
    03:00 -7°C° 0 mm 3 m/S 735 mmHg 92%
    04:00 -7°C° 0 mm 3 m/S 735 mmHg 94%
    05:00 -8°C° 0 mm 3 m/S 736 mmHg 94%
    06:00 -8°C° 0 mm 3 m/S 736 mmHg 94%
    07:00 -8°C° 0 mm 3 m/S 736 mmHg 94%
    08:00 -7°C° 0 mm 3 m/S 736 mmHg 93%
    09:00 -6°C° 0 mm 3 m/S 737 mmHg 91%
    10:00 -4°C° 0 mm 3 m/S 737 mmHg 89%
    11:00 -2°C° 0 mm 3 m/S 737 mmHg 87%
    12:00 -2°C° 0 mm 3 m/S 737 mmHg 86%
    13:00 -1°C° 0 mm 3 m/S 737 mmHg 85%
    14:00 -1°C° 0 mm 3 m/S 737 mmHg 85%
    15:00 -1°C° 0 mm 3 m/S 737 mmHg 86%
    16:00 -1°C° 0 mm 2 m/S 737 mmHg 86%
    17:00 -4°C° 0 mm 3 m/S 737 mmHg 89%
    18:00 -5°C° 0 mm 3 m/S 737 mmHg 92%
    19:00 -6°C° 0 mm 3 m/S 736 mmHg 94%
    20:00 -6°C° 0 mm 3 m/S 736 mmHg 95%
    21:00 -7°C° 0 mm 4 m/S 736 mmHg 95%
    22:00 -7°C° 0 mm 4 m/S 736 mmHg 95%
    23:00 -7°C° 0 mm 4 m/S 735 mmHg 95%

    übermorgen, 26 Februar, Mittwoch

    Zeit Temperatur Niederschläge Wind Luftdruck Luftfeuchtigkeit
    00:00 -5°C° 0 mm 4 m/S 735 mmHg 94%
    01:00 -5°C° 0 mm 4 m/S 734 mmHg 94%
    02:00 -5°C° 0.1 mm 4 m/S 734 mmHg 93%
    03:00 -5°C° 0.1 mm 4 m/S 733 mmHg 92%
    04:00 -6°C° 0.1 mm 5 m/S 733 mmHg 92%
    05:00 -6°C° 0 mm 5 m/S 732 mmHg 92%
    06:00 -6°C° 0 mm 5 m/S 731 mmHg 92%
    07:00 -6°C° 0 mm 5 m/S 731 mmHg 93%
    08:00 -6°C° 0 mm 5 m/S 730 mmHg 93%
    09:00 -6°C° 0 mm 5 m/S 729 mmHg 93%
    10:00 -6°C° 0 mm 5 m/S 728 mmHg 93%
    11:00 -6°C° 0.6 mm 5 m/S 728 mmHg 94%
    12:00 -5°C° 0.6 mm 5 m/S 727 mmHg 94%
    13:00 -5°C° 0.6 mm 5 m/S 726 mmHg 95%
    14:00 -4°C° 0.7 mm 4 m/S 726 mmHg 95%
    15:00 -4°C° 0.7 mm 4 m/S 725 mmHg 95%
    16:00 -2°C° 0.7 mm 3 m/S 725 mmHg 96%
    17:00 -4°C° 0.3 mm 3 m/S 725 mmHg 96%
    18:00 -3°C° 0.3 mm 2 m/S 724 mmHg 97%
    19:00 -2°C° 0.3 mm 1 m/S 724 mmHg 97%
    20:00 -2°C° 0.3 mm 1 m/S 724 mmHg 97%
    21:00 -2°C° 0.3 mm 1 m/S 724 mmHg 97%
    22:00 -2°C° 0.3 mm 1 m/S 724 mmHg 97%
    23:00 -4°C° 0.1 mm 2 m/S 725 mmHg 96%

    27 Februar, Donnerstag

    Zeit Temperatur Niederschläge Wind Luftdruck Luftfeuchtigkeit
    00:00 -5°C° 0.1 mm 3 m/S 725 mmHg 94%
    01:00 -5°C° 0.1 mm 4 m/S 725 mmHg 93%
    02:00 -5°C° 0 mm 4 m/S 726 mmHg 92%
    03:00 -6°C° 0 mm 5 m/S 727 mmHg 91%
    04:00 -6°C° 0 mm 5 m/S 727 mmHg 90%
    05:00 -6°C° 0 mm 5 m/S 728 mmHg 88%
    06:00 -5°C° 0 mm 6 m/S 729 mmHg 86%
    07:00 -5°C° 0 mm 6 m/S 730 mmHg 84%
    08:00 -5°C° 0 mm 6 m/S 730 mmHg 84%
    09:00 -5°C° 0 mm 6 m/S 731 mmHg 83%
    10:00 -6°C° 0 mm 6 m/S 732 mmHg 83%
    11:00 -5°C° 0 mm 5 m/S 732 mmHg 80%
    12:00 -4°C° 0 mm 5 m/S 732 mmHg 76%
    13:00 -4°C° 0 mm 5 m/S 733 mmHg 73%
    14:00 -2°C° 0 mm 4 m/S 733 mmHg 78%
    15:00 -2°C° 0 mm 4 m/S 734 mmHg 82%
    16:00 -2°C° 0 mm 4 m/S 734 mmHg 86%
    17:00 -3°C° 0 mm 4 m/S 735 mmHg 87%
    18:00 -3°C° 0 mm 4 m/S 735 mmHg 88%
    19:00 -4°C° 0 mm 4 m/S 736 mmHg 89%
    20:00 -4°C° 0 mm 3 m/S 736 mmHg 89%
    21:00 -4°C° 0 mm 3 m/S 737 mmHg 89%
    22:00 -4°C° 0 mm 3 m/S 737 mmHg 90%
    23:00 -4°C° 0 mm 3 m/S 737 mmHg 91%

    28 Februar, Freitag

    Zeit Temperatur Niederschläge Wind Luftdruck Luftfeuchtigkeit
    00:00 -4°C° 0 mm 3 m/S 738 mmHg 91%
    01:00 -4°C° 0 mm 3 m/S 738 mmHg 92%
    02:00 -4°C° 0 mm 3 m/S 738 mmHg 92%
    03:00 -4°C° 0 mm 3 m/S 738 mmHg 92%
    04:00 -4°C° 0 mm 3 m/S 739 mmHg 92%
    05:00 -4°C° 0 mm 3 m/S 739 mmHg 92%
    06:00 -4°C° 0 mm 3 m/S 739 mmHg 93%
    07:00 -4°C° 0 mm 3 m/S 739 mmHg 93%
    08:00 -2°C° 0.1 mm 3 m/S 739 mmHg 95%
    09:00 -2°C° 0.1 mm 4 m/S 739 mmHg 96%
    10:00 -1°C° 0.1 mm 5 m/S 739 mmHg 97%
    11:00 -1°C° 0 mm 4 m/S 739 mmHg 96%
    12:00 -1°C° 0 mm 4 m/S 739 mmHg 94%
    13:00 0°C° 0 mm 4 m/S 740 mmHg 93%
    14:00 0°C° 0 mm 4 m/S 740 mmHg 92%
    15:00 0°C° 0 mm 4 m/S 740 mmHg 91%
    16:00 0°C° 0 mm 4 m/S 741 mmHg 90%
    17:00 0°C° 0 mm 3 m/S 741 mmHg 90%
    18:00 -1°C° 0 mm 3 m/S 741 mmHg 91%
    19:00 -2°C° 0 mm 2 m/S 742 mmHg 92%
    20:00 -2°C° 0 mm 2 m/S 742 mmHg 92%
    21:00 -2°C° 0 mm 2 m/S 742 mmHg 92%
    22:00 -4°C° 0 mm 3 m/S 743 mmHg 93%
    23:00 -4°C° 0 mm 3 m/S 743 mmHg 91%

    29 Februar, Samstag

    Zeit Temperatur Niederschläge Wind Luftdruck Luftfeuchtigkeit
    00:00 -4°C° 0 mm 3 m/S 743 mmHg 90%
    01:00 -4°C° 0 mm 3 m/S 743 mmHg 88%
    02:00 -4°C° 0 mm 3 m/S 742 mmHg 87%
    03:00 -4°C° 0 mm 3 m/S 742 mmHg 86%
    04:00 -4°C° 0 mm 3 m/S 742 mmHg 85%
    05:00 -4°C° 0 mm 3 m/S 742 mmHg 85%
    06:00 -5°C° 0 mm 3 m/S 742 mmHg 85%
    07:00 -4°C° 0 mm 2 m/S 742 mmHg 85%
    08:00 -4°C° 0 mm 3 m/S 741 mmHg 82%
    09:00 -3°C° 0 mm 4 m/S 741 mmHg 79%
    10:00 -2°C° 0 mm 4 m/S 741 mmHg 76%
    11:00 -1°C° 0 mm 5 m/S 741 mmHg 75%
    12:00 0°C° 0 mm 5 m/S 741 mmHg 73%
    13:00 0°C° 0 mm 5 m/S 741 mmHg 71%
    14:00 0°C° 0 mm 5 m/S 741 mmHg 71%
    15:00 -1°C° 0 mm 5 m/S 741 mmHg 71%
    16:00 -1°C° 0 mm 5 m/S 741 mmHg 71%
    17:00 -2°C° 0 mm 5 m/S 741 mmHg 74%
    18:00 -4°C° 0 mm 5 m/S 742 mmHg 77%
    19:00 -4°C° 0 mm 4 m/S 742 mmHg 81%
    20:00 -4°C° 0 mm 4 m/S 742 mmHg 83%
    21:00 -5°C° 0 mm 4 m/S 742 mmHg 86%
    22:00 -5°C° 0 mm 3 m/S 742 mmHg 88%
    23:00 -6°C° 0 mm 3 m/S 742 mmHg 90%
    Mehr zeigen